TimeEST,TemperatureF,Dew PointF,Humidity,Sea Level PressureIn,VisibilityMPH,Wind Direction,Wind SpeedMPH,Gust SpeedMPH,PrecipitationIn,Events,Conditions,WindDirDegrees,DateUTC
12:53 AM,70.0,66.9,90,30.08,10.0,NE,11.5,-,0.00,,Overcast,40,2012-11-15 05:53:00
1:53 AM,69.1,64.0,84,30.07,10.0,ENE,11.5,-,0.00,Rain,Light Rain,70,2012-11-15 06:53:00
2:53 AM,68.0,64.9,90,30.06,10.0,SSW,5.8,-,0.05,Rain,Light Rain,210,2012-11-15 07:53:00
3:53 AM,69.1,66.0,90,30.05,10.0,North,3.5,-,0.00,,Overcast,10,2012-11-15 08:53:00
4:53 AM,66.9,64.0,90,30.05,10.0,North,6.9,-,N/A,,Clear,350,2012-11-15 09:53:00
5:53 AM,66.0,64.0,93,30.06,10.0,Calm,Calm,-,N/A,,Clear,0,2012-11-15 10:53:00
6:53 AM,64.9,64.0,97,30.07,10.0,Calm,Calm,-,N/A,,Clear,0,2012-11-15 11:53:00
7:53 AM,69.1,64.9,87,30.08,10.0,Calm,Calm,-,N/A,,Clear,0,2012-11-15 12:53:00
8:53 AM,73.9,66.0,76,30.09,10.0,North,4.6,-,N/A,,Clear,360,2012-11-15 13:53:00
9:53 AM,78.1,64.9,64,30.11,10.0,NNE,6.9,-,N/A,,Clear,20,2012-11-15 14:53:00
10:53 AM,79.0,62.1,56,30.10,10.0,NNE,5.8,-,N/A,,Partly Cloudy,20,2012-11-15 15:53:00
11:53 AM,80.1,61.0,52,30.09,10.0,East,6.9,-,N/A,,Mostly Cloudy,100,2012-11-15 16:53:00
12:53 PM,80.1,60.1,50,30.06,10.0,Calm,Calm,-,N/A,,Partly Cloudy,0,2012-11-15 17:53:00
1:53 PM,80.1,62.1,54,30.05,10.0,East,8.1,-,N/A,,Overcast,90,2012-11-15 18:53:00
2:53 PM,80.1,61.0,52,30.04,10.0,East,8.1,-,N/A,,Clear,90,2012-11-15 19:53:00
3:53 PM,79.0,60.1,52,30.04,10.0,ENE,8.1,-,N/A,,Clear,60,2012-11-15 20:53:00
4:53 PM,77.0,60.1,56,30.05,10.0,East,9.2,-,N/A,,Clear,80,2012-11-15 21:53:00
5:53 PM,73.9,62.1,66,30.05,10.0,East,4.6,-,N/A,,Mostly Cloudy,100,2012-11-15 22:53:00
6:53 PM,73.9,62.1,66,30.06,10.0,NNE,3.5,-,N/A,,Clear,30,2012-11-15 23:53:00
7:53 PM,73.9,64.0,71,30.08,10.0,North,4.6,-,N/A,,Overcast,10,2012-11-16 00:53:00
8:53 PM,73.0,64.0,73,30.09,10.0,NNE,4.6,-,N/A,,Overcast,30,2012-11-16 01:53:00
9:53 PM,72.0,64.9,78,30.08,10.0,North,5.8,-,N/A,,Scattered Clouds,360,2012-11-16 02:53:00
10:53 PM,70.0,64.9,84,30.08,10.0,North,8.1,-,N/A,,Partly Cloudy,360,2012-11-16 03:53:00
11:53 PM,69.1,64.9,87,30.08,10.0,North,9.2,-,N/A,,Overcast,350,2012-11-16 04:53:00